RH
13 14 16 17 17 17 16 16 16 16 16 15 15 15 15 15 14 14 15 15 16 16 17 17 18 18 18 19 20 21 27 35 33 31 30 28 28 29 29 28 25 23 23 24 24
14 14 15 17 17 17 17 17 17 16 16 16 16 16 15 15 15 14 13 13 14 14 15 18 19 18 18 18 19 23 25 30 27 28 28 28 27 27 25 23 23 23 22 21 19
14 15 15 17 17 18 18 17 17 17 17 16 16 16 15 15 16 13 13 12 13 14 16 17 17 17 17 16 17 20 24 25 26 26 27 26 26 24 24 23 22 20 19 18 17
15 16 16 17 17 17 17 17 17 16 16 15 15 15 15 16 16 13 12 11 12 14 15 15 16 17 16 17 17 19 23 24 26 26 24 23 22 21 21 20 18 17 17 16 15
16 17 18 18 17 17 17 17 16 16 15 14 14 14 14 13 12 11 11 11 12 13 14 15 16 16 16 16 17 19 21 23 24 23 22 21 19 19 18 17 16 16 16 16 13
17 18 18 18 18 17 17 17 16 16 15 14 13 14 13 13 11 11 11 10 10 11 11 13 14 14 16 16 18 20 20 20 20 20 19 18 18 18 16 16 15 16 16 14 9
18 19 19 19 19 18 16 17 17 16 15 14 12 12 12 12 12 11 10 9 9 11 12 13 14 14 15 16 17 18 19 19 19 18 18 17 17 17 16 15 16 16 15 10 9
18 19 19 19 19 18 16 17 16 15 15 13 12 11 13 12 11 10 10 10 11 11 11 13 13 13 15 16 17 17 19 20 19 17 16 18 20 16 15 15 16 16 11 7 9
18 20 20 19 19 17 16 16 16 15 14 13 12 11 13 11 11 10 11 11 11 11 11 11 12 14 16 18 21 20 18 20 20 16 17 18 19 15 15 16 16 14 7 7 10
18 19 20 20 20 17 16 16 15 14 14 13 12 12 12 11 10 11 11 11 12 11 11 12 13 12 11 12 15 14 14 15 17 18 16 19 19 15 15 16 16 10 7 8 12
16 19 20 20 20 18 16 16 16 15 14 14 13 13 12 11 12 12 12 11 11 11 12 12 13 13 11 11 12 12 12 12 15 15 15 17 17 15 15 16 14 8 7 9 16
16 18 20 20 20 18 16 17 17 15 15 13 13 12 11 12 13 12 11 11 11 12 11 12 13 12 11 10 12 12 11 13 15 15 15 15 16 15 15 15 11 8 8 11 22
17 18 19 20 20 19 16 16 16 14 15 14 13 13 12 12 12 11 11 11 11 11 11 12 12 12 11 10 11 13 11 9 11 15 14 13 16 16 15 14 12 8 9 13 25
17 18 20 20 20 19 17 16 15 14 14 15 13 12 12 13 12 10 10 12 11 11 12 11 11 11 11 11 10 12 11 10 11 16 17 14 14 19 17 13 10 7 9 15 29
19 18 20 20 22 20 18 16 15 16 22 15 13 13 12 13 13 11 9 11 13 12 12 14 12 12 11 11 10 11 13 14 15 17 16 20 16 18 16 11 8 7 11 17 33
20 18 20 22 20 19 18 17 17 18 20 16 14 14 14 13 12 10 10 10 11 11 12 12 13 12 11 11 11 12 15 17 17 18 21 19 13 16 12 10 8 7 13 20 36
22 19 20 22 22 20 19 19 19 20 18 16 14 14 14 14 12 10 10 11 12 14 14 13 13 13 12 11 12 12 13 16 21 21 14 14 13 13 12 10 9 8 14 21 39
23 21 20 22 22 21 20 20 22 21 19 16 14 15 14 14 13 11 11 11 12 12 13 14 17 14 13 11 12 12 14 14 19 16 12 16 15 16 11 10 9 10 15 22 41
25 23 21 23 23 23 22 21 19 19 19 18 17 15 15 15 13 12 12 12 12 12 14 12 15 14 14 12 12 12 15 13 15 15 16 15 16 13 11 10 8 9 16 23 41
28 26 24 23 25 24 23 21 20 20 19 19 16 15 16 15 14 12 12 13 13 14 13 13 15 15 15 14 14 13 14 17 16 34 23 13 12 11 13 10 8 9 15 25 40
33 28 25 23 27 27 24 20 21 20 19 19 16 16 16 16 14 12 12 15 14 14 13 13 14 17 16 16 15 14 14 16 17 16 19 18 15 12 12 10 8 10 15 25 40
37 31 28 25 29 26 25 22 22 20 19 20 18 17 16 16 15 13 13 15 15 14 14 13 15 15 16 15 16 15 15 15 23 31 19 25 21 14 12 11 9 9 15 24 41
40 36 30 28 29 28 27 25 22 21 19 19 19 18 18 17 17 16 15 16 16 16 16 15 16 18 20 19 18 18 17 17 19 21 31 31 21 14 13 12 9 9 14 23 44
44 41 33 31 29 28 27 24 23 21 20 19 19 19 18 18 18 18 16 17 15 15 16 17 17 17 19 19 19 20 20 18 18 28 30 23 18 17 15 12 8 8 13 23 42
46 45 37 34 29 27 28 25 24 22 20 19 19 18 19 21 19 17 17 18 15 18 17 18 18 15 14 16 17 17 18 20 23 20 23 20 18 15 11 7 7 9 12 24 40
54 48 40 37 32 29 31 28 25 23 21 19 18 18 19 19 18 18 17 16 15 19 17 18 20 16 15 16 16 17 17 17 19 21 21 20 18 13 9 8 8 8 12 23 40
69 50 46 42 34 32 31 27 25 24 22 20 19 19 19 19 19 18 17 16 15 17 16 19 21 19 19 18 18 18 16 17 17 19 19 19 17 13 10 9 8 9 12 22 41